Regional Weather Roundup
Issued by NWS Charleston, SC

Current Version | Previous Version | Text Only | Print | Product List | Glossary Off
Versions: 1 2 3 4 5 6 7 8 9 10 11 12 13 14 15 16 17 18 19 20 21 22 23 24 25 26 27 28 29 30 31 32 33 34 35 36 37 38 39 40 41 42 43 44 45 46 47 48 49 50
600 ASUS42 KCHS 141613 RWRCHS REGIONAL WEATHER ROUNDUP NATIONAL WEATHER SERVICE CHARLESTON SC 1100 AM EST SUN FEB 14 2016 NOTE: "FAIR" INDICATES FEW OR NO CLOUDS BELOW 12,000 FEET WITH NO SIGNIFICANT WEATHER AND/OR OBSTRUCTIONS TO VISIBILITY. NOT ALL STATIONS ARE QUALITY CONTROLLED BY THE NATIONAL WEATHER SERVICE. USE DATA WITH CAUTION...ESPECIALLY DEWPOINT OBSERVATIONS. SCZ027-030-031-034>040-042>050-141700- ...SOUTHEAST SOUTH CAROLINA... CITY SKY/WX TMP DP RH WIND PRES REMARKS N CHARLESTON MOSUNNY 37 10 32 NE10G18 30.50S WCI 30 WATERFRONT PRK N/A 34 22 61 NE13 30.34R WCI 25 MOUNT PLEASANT FAIR 36 16 44 NE6G20 30.50F WCI 31 JOHNS ISLAND FAIR 36 19 51 NE18 30.49S WCI 25 PINOPOLIS N/A 30 9 40 NE10 30.42F WCI 21 MONCKS CORNER FAIR 32 1 27 NE8 30.51S HAZE WCI 25 SUMMERVILLE FAIR 36 10 35 N5 30.51S WCI 32 BEAUFORT MCAS SUNNY 39 16 39 E12G20 30.48R WCI 32 BEAUFORT ARPT FAIR 37 21 52 NE18 30.47S WCI 27 HILTON HEAD IS SUNNY 37 28 70 NE16G28 30.47R WCI 28 WALTERBORO SUNNY 37 7 28 NE10 30.50S WCI 30 ALLENDALE FAIR 37 7 28 VRB3G13 30.48S ...SOUTHERN MIDLANDS AND PEE DEE... CITY SKY/WX TMP DP RH WIND PRES REMARKS GEORGETOWN FAIR 32 10 40 NE15 30.54F WCI 22 KINGSTREE FAIR 30 1 29 N6 30.54R WCI 24 ORANGEBURG SUNNY 33 3 28 NE10 30.51F WCI 25 BARNWELL FAIR 36 9 32 E10G17 30.49S WCI 28 AIKEN FAIR 32 3 29 NE12 30.50S WCI 23 MANNING FAIR 32 3 29 NE5 30.52F WCI 27 COLUMBIA PTSUNNY 33 0 24 E8 30.51F WCI 26 SUMTER CLOUDY 31 2 29 NE12 30.50S WCI 22 FLORENCE MOSUNNY 28 0 29 NE9 30.54F WCI 19 MYRTLE BEACH SUNNY 30 3 31 NE8 30.55F WCI 23 N MYRTLE BEACH SUNNY 31 4 31 NE8 30.54F WCI 23 $$ GAZ063-065-086>088-099>101-113>116-118-119-134>141-150-141700- ...SOUTHEAST GEORGIA... CITY SKY/WX TMP DP RH WIND PRES REMARKS SAVANNAH ARPT PTSUNNY 42 20 41 NE12G21 30.46R HUNTER AAF SUNNY 43 27 54 NE14G23 30.43R FORT STEWART SUNNY 43 26 49 NE15 30.42R STATESBORO SUNNY 43 4 19 E6 30.46S SYLVANIA SUNNY 39 17 40 E9 30.47R WCI 33 CLAXTON FAIR 41 22 47 N10 30.45R ...CSRA...CENTRAL AND FAR SOUTHEAST GEORGIA... CITY SKY/WX TMP DP RH WIND PRES REMARKS THOMSON SUNNY 37 10 33 E8 30.49F WCI 30 AUGUSTA-BUSH SUNNY 36 5 27 E12 30.48F WCI 28 AUGUSTA-DANIEL SUNNY 34 2 25 E8 30.46F WCI 27 SWAINSBORO FAIR 39 14 35 E8 30.45S WCI 34 VIDALIA SUNNY 43 21 42 E8 30.43F EASTMAN FAIR 42 21 43 E7 30.44S HAZLEHURST FAIR 44 25 47 E8 30.41R ALMA SUNNY 45 29 53 E9 30.40S WAYCROSS SUNNY 50 37 62 E7 30.39S JESUP FAIR 48 36 61 E12G18 30.41F BAXLEY FAIR 45 28 53 E9 30.40S BRUNSWICK PTSUNNY 50 41 71 NE21 30.40S SAINT SIMONS MOSUNNY 50 41 71 MISG 30.39R $$ SCZ027-028-034-036>038-045-046-048>050-GAZ119-141-141700- ...LAKE AND SUPPLEMENTAL COASTAL OBSERVATIONS... STATION/POSITION TIME TEMP WIND PRES WAVE SWELL AIR SEA DIR/SP/G HT/PER HT/PER/DIR (UTC) (F) (DEG/KT/KT) (MB) (FT/S) (FT/S/D) WINYAH BAY 1445 29 50/ 14 1033.0 LAKE MURRAY 1500 28 60/ 4/ 10 1032.5R ACE BASIN NERRS NOT AVBL FORT PULASKI 1500 38 49 40/ 23/ 29 1030.9R SAPELO ISLAND 1500 48 50/ 14 1029.0S $$ ANZ835-935-AMZ111-154-330-350-352-354-370-450-454-472-141700- ...C-MAN AND BUOY OBSERVATIONS... STATION/POSITION TIME TEMP WIND PRES WAVE SWELL AIR SEA DIR/SP/G HT/PER HT/PER/DIR (UTC) (F) (DEG/KT/KT) (MB) (FT/S) (FT/S/D) BUOY 41004 1550 42 67 40/ 17/ 23 1031.1R 6/ 7 2/10 BUOY 41008 1550 47 53 50/ 21/ 25 1028.6R 7/ 6 FOLLY BEACH CMAN 1600 34 40/ 25/ 28 1032.6R CAPERS NEARSHORE 1508 34 50/ 23/ 29 1032.4R FRIPP NEARSHORE 1500 39 40/ 27/ 31 1029.6R STATION/POSITION TIME TEMP WIND PRES WAVE SWELL AIR SEA DIR/SP/G HT/PER HT/PER/DIR (UTC) (F) (DEG/KT/KT) (MB) (FT/S) (FT/S/D) 5E ST. MARYS GA 1521 55 N/A 4/ 4 FRYING PAN BUOY 1500 35 62 30/ 17/ 23 1033.0R BUOY 41025 1550 29 72 360/ 21/ 27 1033.2F 5/ 5 3/ 50/10 CAPE LOOKOUT NC 1600 25 10/ 16/ 21 1034.2R BUOY 41002 1550 48 67 10/ 16/ 19 N/A 9/10 7/ 20/10 BUOY 41010 1520 62 72 1026.1S ST AUGUSTINE FL 1600 54 56 360/ 17/ 18 1027.6F $$

USA.gov is the U.S. government's official web portal to all federal, state and local government web resources and services.